| time (UTC) | temp F | wind direction | speed knots | gust knots | rain 1hr in | rain 24hr in | rain mn in | humidity % | barometer mb |
| 20260507051803 | 46 | 0 | 0.0 | 0.0 | 0.00 | 0.00 | 0.00 | 88 | 1014.5 |
| 20260507050906 | 46 | 0 | 0.0 | 0.0 | 0.00 | 0.00 | 0.00 | 88 | 1014.5 |
| 20260507050003 | 46 | 0 | 0.0 | 0.0 | 0.00 | 0.00 | 0.00 | 87 | 1014.5 |
| 20260507045617 | 46 | 21 | 0.0 | 0.9 | 0.00 | 0.00 | 0.00 | 87 | 1014.4 |
| 20260507044505 | 46 | 21 | 0.0 | 0.9 | 0.00 | 0.00 | 0.00 | 87 | 1014.4 |
| 20260507043604 | 47 | 0 | 0.0 | 0.0 | 0.00 | 0.00 | 0.00 | 87 | 1014.4 |
| 20260507042703 | 47 | 0 | 0.0 | 0.0 | 0.00 | 0.00 | 0.00 | 87 | 1014.3 |
| 20260507041805 | 47 | 0 | 0.0 | 0.0 | 0.00 | 0.00 | 0.00 | 87 | 1014.4 |
| 20260507040905 | 47 | 0 | 0.0 | 0.0 | 0.00 | 0.00 | 0.00 | 88 | 1014.4 |
| 20260507040003 | 47 | 21 | 0.0 | 0.9 | 0.00 | 0.00 | 0.00 | 88 | 1014.3 |
| 20260507035403 | 47 | 0 | 0.0 | 0.0 | 0.00 | 0.00 | 0.00 | 88 | 1014.3 |
| 20260507034505 | 47 | 0 | 0.0 | 0.0 | 0.00 | 0.00 | 0.00 | 87 | 1014.3 |
| 20260507033812 | 47 | 0 | 0.0 | 0.0 | 0.00 | 0.00 | 0.00 | 87 | 1014.3 |
| 20260507032703 | 47 | 0 | 0.0 | 0.0 | 0.00 | 0.00 | 0.00 | 86 | 1014.1 |
| 20260507031803 | 47 | 0 | 0.0 | 0.0 | 0.00 | 0.00 | 0.00 | 86 | 1014.1 |
| 20260507030905 | 48 | 0 | 0.0 | 0.0 | 0.00 | 0.00 | 0.00 | 86 | 1014.1 |
| 20260507030005 | 48 | 0 | 0.0 | 0.0 | 0.00 | 0.00 | 0.00 | 86 | 1014.1 |
| 20260507025405 | 48 | 0 | 0.0 | 0.0 | 0.00 | 0.00 | 0.00 | 85 | 1014.1 |
| 20260507024716 | 48 | 21 | 0.0 | 0.9 | 0.00 | 0.00 | 0.00 | 85 | 1014.1 |
| 20260507023818 | 48 | 21 | 0.0 | 0.9 | 0.00 | 0.00 | 0.00 | 85 | 1014.1 |
| 20260507022916 | 48 | 21 | 0.0 | 0.9 | 0.00 | 0.00 | 0.00 | 86 | 1014.1 |
| 20260507021804 | 48 | 21 | 0.0 | 0.9 | 0.00 | 0.00 | 0.00 | 86 | 1014.1 |
| 20260507020903 | 48 | 21 | 0.0 | 1.7 | 0.00 | 0.00 | 0.00 | 86 | 1014.0 |
| 20260507020218 | 48 | 21 | 0.0 | 1.7 | 0.00 | 0.00 | 0.00 | 86 | 1014.0 |
| 20260507015403 | 48 | 21 | 0.0 | 0.9 | 0.00 | 0.00 | 0.00 | 86 | 1014.0 |
| 20260507014503 | 48 | 0 | 0.0 | 0.0 | 0.00 | 0.00 | 0.00 | 86 | 1014.0 |
| 20260507013605 | 48 | 0 | 0.0 | 0.0 | 0.00 | 0.00 | 0.00 | 86 | 1013.9 |
| 20260507012705 | 47 | 21 | 0.0 | 0.9 | 0.00 | 0.00 | 0.00 | 85 | 1013.9 |
| 20260507011803 | 48 | 0 | 0.0 | 0.0 | 0.00 | 0.00 | 0.00 | 84 | 1013.9 |
| 20260507010003 | 48 | 0 | 0.0 | 0.0 | 0.00 | 0.00 | 0.00 | 83 | 1013.9 |
| 20260507005405 | 48 | 0 | 0.0 | 0.0 | 0.00 | 0.00 | 0.00 | 83 | 1013.9 |
| 20260507004504 | 49 | 21 | 0.0 | 0.9 | 0.00 | 0.00 | 0.00 | 83 | 1013.8 |
| 20260507003814 | 49 | 21 | 0.0 | 0.9 | 0.00 | 0.00 | 0.00 | 82 | 1013.9 |
| 20260507002705 | 49 | 21 | 0.0 | 0.9 | 0.00 | 0.00 | 0.00 | 82 | 1013.9 |
| 20260507001805 | 49 | 21 | 0.0 | 1.7 | 0.00 | 0.00 | 0.00 | 82 | 1013.9 |
| 20260507000905 | 50 | 21 | 0.0 | 1.7 | 0.00 | 0.00 | 0.00 | 81 | 1013.9 |
| 20260507000214 | 50 | 21 | 0.0 | 1.7 | 0.00 | 0.00 | 0.00 | 81 | 1013.9 |
| 20260506235405 | 50 | 22 | 0.0 | 1.7 | 0.00 | 0.00 | 0.00 | 80 | 1013.8 |
| 20260506234723 | 50 | 22 | 0.0 | 1.7 | 0.00 | 0.00 | 0.00 | 80 | 1013.8 |
| 20260506233606 | 50 | 22 | 0.0 | 1.7 | 0.00 | 0.00 | 0.00 | 79 | 1013.7 |
| 20260506232705 | 50 | 22 | 0.0 | 1.7 | 0.00 | 0.00 | 0.00 | 79 | 1013.7 |
| 20260506231803 | 50 | 22 | 0.0 | 1.7 | 0.00 | 0.00 | 0.00 | 79 | 1013.7 |
| 20260506231117 | 51 | 22 | 0.0 | 1.7 | 0.00 | 0.00 | 0.00 | 78 | 1013.7 |
| 20260506230003 | 51 | 20 | 0.0 | 2.6 | 0.00 | 0.00 | 0.00 | 78 | 1013.8 |
| 20260506225404 | 51 | 21 | 0.0 | 3.5 | 0.00 | 0.00 | 0.00 | 78 | 1013.8 |
| 20260506224505 | 51 | 22 | 0.0 | 1.7 | 0.00 | 0.00 | 0.00 | 77 | 1013.7 |
| 20260506223816 | 51 | 22 | 0.0 | 1.7 | 0.00 | 0.00 | 0.00 | 77 | 1013.7 |
| 20260506222913 | 51 | 22 | 0.0 | 1.7 | 0.00 | 0.00 | 0.00 | 76 | 1013.6 |
| 20260506222015 | 51 | 25 | 0.0 | 2.6 | 0.00 | 0.00 | 0.00 | 75 | 1013.5 |
| 20260506220903 | 51 | 18 | 0.0 | 2.6 | 0.00 | 0.00 | 0.00 | 74 | 1013.5 |
| 20260506220005 | 51 | 17 | 0.0 | 1.7 | 0.00 | 0.00 | 0.00 | 74 | 1013.5 |
| 20260506215403 | 51 | 17 | 0.0 | 1.7 | 0.00 | 0.00 | 0.00 | 73 | 1013.4 |
| 20260506214506 | 52 | 20 | 0.0 | 3.5 | 0.00 | 0.00 | 0.00 | 72 | 1013.5 |
| 20260506213603 | 52 | 12 | 0.9 | 4.3 | 0.00 | 0.00 | 0.00 | 72 | 1013.5 |
| 20260506212703 | 52 | 332 | 0.9 | 4.3 | 0.00 | 0.00 | 0.00 | 71 | 1013.5 |
| 20260506211803 | 52 | 15 | 0.9 | 3.5 | 0.00 | 0.00 | 0.00 | 70 | 1013.5 |
| 20260506211118 | 52 | 28 | 0.9 | 3.5 | 0.00 | 0.00 | 0.00 | 70 | 1013.5 |
| 20260506210003 | 52 | 11 | 0.9 | 2.6 | 0.00 | 0.00 | 0.00 | 69 | 1013.3 |
| 20260506205403 | 52 | 3 | 0.9 | 4.3 | 0.00 | 0.00 | 0.00 | 69 | 1013.4 |
| 20260506204504 | 53 | 25 | 0.9 | 4.3 | 0.00 | 0.00 | 0.00 | 69 | 1013.3 |
| 20260506203603 | 53 | 359 | 0.9 | 3.5 | 0.00 | 0.00 | 0.00 | 69 | 1013.3 |
| 20260506202705 | 53 | 358 | 0.9 | 4.3 | 0.00 | 0.00 | 0.00 | 68 | 1013.2 |
| 20260506201805 | 53 | 356 | 0.9 | 3.5 | 0.00 | 0.00 | 0.00 | 67 | 1013.1 |
| 20260506200903 | 53 | 352 | 0.9 | 5.2 | 0.00 | 0.00 | 0.00 | 66 | 1013.1 |
| 20260506200004 | 53 | 360 | 0.9 | 5.2 | 0.00 | 0.00 | 0.00 | 66 | 1013.0 |
| 20260506195405 | 53 | 3 | 0.9 | 3.5 | 0.00 | 0.00 | 0.00 | 65 | 1012.9 |
| 20260506194505 | 54 | 355 | 0.9 | 7.0 | 0.00 | 0.00 | 0.00 | 65 | 1012.9 |
| 20260506193605 | 54 | 17 | 0.9 | 5.2 | 0.00 | 0.00 | 0.00 | 66 | 1012.8 |
| 20260506192703 | 54 | 24 | 0.9 | 4.3 | 0.00 | 0.00 | 0.00 | 66 | 1012.6 |
| 20260506191803 | 54 | 8 | 1.7 | 7.0 | 0.00 | 0.00 | 0.00 | 65 | 1012.6 |
| 20260506190906 | 54 | 12 | 0.9 | 5.2 | 0.00 | 0.00 | 0.00 | 65 | 1012.5 |
| 20260506190004 | 54 | 45 | 0.9 | 3.5 | 0.00 | 0.00 | 0.00 | 65 | 1012.5 |
| 20260506185404 | 54 | 37 | 0.9 | 5.2 | 0.00 | 0.00 | 0.00 | 65 | 1012.4 |
| 20260506184505 | 54 | 90 | 0.9 | 4.3 | 0.00 | 0.00 | 0.00 | 65 | 1012.4 |
| 20260506183603 | 54 | 93 | 1.7 | 6.1 | 0.00 | 0.00 | 0.00 | 64 | 1012.3 |
| 20260506182705 | 55 | 48 | 1.7 | 4.3 | 0.00 | 0.00 | 0.00 | 61 | 1012.1 |
| 20260506181805 | 55 | 7 | 1.7 | 7.0 | 0.00 | 0.00 | 0.00 | 59 | 1012.1 |
| 20260506180903 | 55 | 23 | 1.7 | 6.1 | 0.00 | 0.00 | 0.00 | 60 | 1012.0 |
| 20260506180005 | 55 | 10 | 1.7 | 6.1 | 0.00 | 0.00 | 0.00 | 59 | 1012.0 |
| 20260506175403 | 55 | 41 | 1.7 | 5.2 | 0.00 | 0.00 | 0.00 | 59 | 1011.9 |
| 20260506174503 | 55 | 56 | 1.7 | 7.0 | 0.00 | 0.00 | 0.00 | 59 | 1011.9 |
| 20260506173819 | 55 | 36 | 0.9 | 4.3 | 0.00 | 0.00 | 0.00 | 59 | 1011.8 |
| 20260506172703 | 56 | 26 | 1.7 | 7.8 | 0.00 | 0.00 | 0.00 | 58 | 1011.8 |
| 20260506171808 | 56 | 323 | 0.9 | 4.3 | 0.00 | 0.00 | 0.00 | 59 | 1011.8 |
| 20260506171116 | 56 | 319 | 0.9 | 6.1 | 0.00 | 0.00 | 0.00 | 59 | 1011.8 |
| 20260506170218 | 56 | 23 | 0.9 | 3.5 | 0.00 | 0.00 | 0.00 | 59 | 1011.8 |
| 20260506165403 | 56 | 35 | 1.7 | 4.3 | 0.00 | 0.00 | 0.00 | 58 | 1011.7 |
| 20260506164505 | 57 | 8 | 1.7 | 7.0 | 0.00 | 0.00 | 0.00 | 58 | 1011.7 |
| 20260506163603 | 57 | 13 | 1.7 | 4.3 | 0.00 | 0.00 | 0.00 | 59 | 1011.7 |
| 20260506162705 | 58 | 15 | 1.7 | 7.0 | 0.00 | 0.00 | 0.00 | 58 | 1011.7 |
| 20260506161805 | 58 | 356 | 1.7 | 6.1 | 0.00 | 0.00 | 0.00 | 59 | 1011.7 |
| 20260506160903 | 57 | 1 | 1.7 | 7.0 | 0.00 | 0.00 | 0.00 | 60 | 1011.7 |
| 20260506160005 | 56 | 10 | 1.7 | 4.3 | 0.00 | 0.00 | 0.00 | 61 | 1011.9 |
| 20260506155615 | 56 | 11 | 1.7 | 7.8 | 0.00 | 0.00 | 0.00 | 61 | 1011.9 |
| 20260506154503 | 56 | 36 | 1.7 | 7.0 | 0.00 | 0.00 | 0.00 | 61 | 1011.9 |
| 20260506153603 | 56 | 331 | 1.7 | 7.8 | 0.00 | 0.00 | 0.00 | 62 | 1012.0 |
| 20260506152706 | 56 | 336 | 1.7 | 7.0 | 0.00 | 0.00 | 0.00 | 63 | 1012.0 |
| 20260506151806 | 55 | 350 | 1.7 | 5.2 | 0.00 | 0.00 | 0.00 | 63 | 1012.0 |
| 20260506150904 | 55 | 21 | 1.7 | 7.0 | 0.00 | 0.00 | 0.00 | 65 | 1012.1 |
| 20260506150003 | 55 | 12 | 1.7 | 7.8 | 0.00 | 0.00 | 0.00 | 65 | 1012.0 |
| 20260506145403 | 55 | 21 | 1.7 | 5.2 | 0.00 | 0.00 | 0.00 | 65 | 1012.0 |
| 20260506144505 | 55 | 52 | 1.7 | 7.0 | 0.00 | 0.00 | 0.00 | 64 | 1012.0 |
| 20260506143604 | 55 | 22 | 1.7 | 7.0 | 0.00 | 0.00 | 0.00 | 64 | 1012.0 |
| 20260506142918 | 56 | 13 | 1.7 | 7.8 | 0.00 | 0.00 | 0.00 | 64 | 1012.1 |
| 20260506141805 | 57 | 19 | 2.6 | 7.8 | 0.00 | 0.00 | 0.00 | 61 | 1011.9 |
| 20260506140908 | 58 | 17 | 2.6 | 7.0 | 0.00 | 0.00 | 0.00 | 60 | 1011.8 |
| 20260506140003 | 57 | 1 | 1.7 | 4.3 | 0.00 | 0.00 | 0.00 | 61 | 1011.8 |
| 20260506135617 | 57 | 7 | 1.7 | 4.3 | 0.00 | 0.00 | 0.00 | 60 | 1011.8 |
| 20260506134505 | 57 | 12 | 1.7 | 7.0 | 0.00 | 0.00 | 0.00 | 60 | 1011.9 |
| 20260506133605 | 57 | 359 | 1.7 | 6.1 | 0.00 | 0.00 | 0.00 | 60 | 1011.9 |
| 20260506132705 | 57 | 354 | 1.7 | 7.0 | 0.00 | 0.00 | 0.00 | 61 | 1011.9 |
| 20260506131803 | 58 | 358 | 2.6 | 7.8 | 0.00 | 0.00 | 0.00 | 60 | 1011.9 |
| 20260506130905 | 58 | 5 | 2.6 | 8.7 | 0.00 | 0.00 | 0.00 | 59 | 1011.8 |
| 20260506130003 | 58 | 23 | 2.6 | 10.4 | 0.00 | 0.00 | 0.00 | 56 | 1011.9 |
| 20260506125405 | 58 | 30 | 2.6 | 10.4 | 0.00 | 0.00 | 0.00 | 56 | 1012.0 |
| 20260506124714 | 58 | 23 | 1.7 | 7.0 | 0.00 | 0.00 | 0.00 | 59 | 1012.0 |
| 20260506123603 | 58 | 35 | 1.7 | 7.0 | 0.00 | 0.00 | 0.00 | 59 | 1012.0 |
| 20260506122914 | 57 | 13 | 2.6 | 9.6 | 0.00 | 0.00 | 0.00 | 61 | 1011.9 |
| 20260506122017 | 57 | 350 | 2.6 | 8.7 | 0.00 | 0.00 | 0.00 | 60 | 1012.0 |
| 20260506120905 | 58 | 4 | 2.6 | 8.7 | 0.00 | 0.00 | 0.00 | 60 | 1012.0 |
| 20260506120003 | 57 | 342 | 2.6 | 7.8 | 0.00 | 0.00 | 0.00 | 61 | 1012.0 |
| 20260506115403 | 57 | 346 | 2.6 | 8.7 | 0.00 | 0.00 | 0.00 | 62 | 1012.0 |
| 20260506114504 | 57 | 1 | 2.6 | 7.8 | 0.00 | 0.00 | 0.00 | 60 | 1012.0 |
| 20260506113818 | 58 | 7 | 2.6 | 7.0 | 0.00 | 0.00 | 0.00 | 58 | 1012.0 |
| 20260506112703 | 58 | 345 | 2.6 | 10.4 | 0.00 | 0.00 | 0.00 | 56 | 1012.0 |
| 20260506112017 | 58 | 37 | 2.6 | 7.8 | 0.00 | 0.00 | 0.00 | 58 | 1011.9 |
| 20260506110903 | 57 | 346 | 2.6 | 7.8 | 0.00 | 0.00 | 0.00 | 57 | 1012.0 |
| 20260506110005 | 56 | 4 | 1.7 | 6.1 | 0.00 | 0.00 | 0.00 | 58 | 1012.0 |
| 20260506105403 | 56 | 351 | 1.7 | 6.1 | 0.00 | 0.00 | 0.00 | 60 | 1012.0 |
| 20260506104503 | 56 | 336 | 3.5 | 12.2 | 0.00 | 0.00 | 0.00 | 58 | 1012.0 |
| 20260506103603 | 57 | 34 | 2.6 | 10.4 | 0.00 | 0.00 | 0.00 | 58 | 1011.9 |
| 20260506102916 | 56 | 348 | 2.6 | 10.4 | 0.00 | 0.00 | 0.00 | 57 | 1011.9 |
| 20260506102018 | 57 | 347 | 2.6 | 10.4 | 0.00 | 0.00 | 0.00 | 58 | 1012.0 |
| 20260506100905 | 56 | 3 | 3.5 | 12.2 | 0.00 | 0.00 | 0.00 | 58 | 1012.1 |
| 20260506100004 | 55 | 2 | 3.5 | 10.4 | 0.00 | 0.00 | 0.00 | 59 | 1011.9 |
| 20260506095405 | 55 | 3 | 2.6 | 10.4 | 0.00 | 0.00 | 0.00 | 59 | 1012.2 |
| 20260506094505 | 54 | 333 | 2.6 | 9.6 | 0.00 | 0.00 | 0.00 | 62 | 1012.1 |
| 20260506093608 | 55 | 336 | 3.5 | 8.7 | 0.00 | 0.00 | 0.00 | 60 | 1012.1 |
| 20260506092705 | 55 | 338 | 1.7 | 8.7 | 0.00 | 0.00 | 0.00 | 61 | 1012.1 |
| 20260506091805 | 54 | 357 | 2.6 | 7.8 | 0.00 | 0.00 | 0.00 | 62 | 1011.9 |
| 20260506091116 | 54 | 344 | 3.5 | 8.7 | 0.00 | 0.00 | 0.00 | 61 | 1011.9 |
| 20260506090003 | 54 | 327 | 2.6 | 10.4 | 0.00 | 0.00 | 0.00 | 59 | 1011.9 |
| 20260506085403 | 54 | 358 | 2.6 | 9.6 | 0.00 | 0.00 | 0.00 | 63 | 1011.8 |
| 20260506084717 | 53 | 7 | 1.7 | 8.7 | 0.00 | 0.00 | 0.00 | 65 | 1011.8 |
| 20260506083603 | 53 | 339 | 2.6 | 10.4 | 0.00 | 0.00 | 0.00 | 64 | 1011.8 |
| 20260506082705 | 54 | 349 | 1.7 | 8.7 | 0.00 | 0.00 | 0.00 | 65 | 1011.6 |
| 20260506081805 | 54 | 330 | 1.7 | 10.4 | 0.00 | 0.00 | 0.00 | 66 | 1011.6 |
| 20260506080905 | 53 | 343 | 2.6 | 7.0 | 0.00 | 0.00 | 0.00 | 68 | 1011.7 |
| 20260506080219 | 53 | 339 | 2.6 | 7.0 | 0.00 | 0.00 | 0.00 | 69 | 1011.6 |
| 20260506072704 | 50 | 338 | 1.7 | 5.2 | 0.00 | 0.00 | 0.00 | 76 | 1011.9 |
| 20260506071805 | 49 | 2 | 0.9 | 4.3 | 0.00 | 0.00 | 0.00 | 76 | 1011.9 |
| 20260506070903 | 49 | 9 | 0.9 | 8.7 | 0.00 | 0.00 | 0.00 | 77 | 1011.9 |
| 20260506061803 | 50 | 322 | 1.7 | 7.8 | 0.00 | 0.00 | 0.00 | 74 | 1011.7 |
| 20260506060903 | 49 | 329 | 0.9 | 7.0 | 0.00 | 0.00 | 0.00 | 76 | 1011.6 |